Time,TemperatureF,DewpointF,PressureIn,WindDirection,WindDirectionDegrees,WindSpeedMPH,WindSpeedGustMPH,Humidity,HourlyPrecipIn,Conditions,Clouds,dailyrainin,SoftwareType,DateUTC
2013-02-10 00:01:00,14.3,1.1,30.26,WNW,282,6.0,7.0,55,0.00,,,0.00,LWC V2.10 B1813,2013-02-10 05:01:00,
2013-02-10 00:06:00,14.3,1.1,30.26,NW,323,5.0,13.0,55,0.00,,,0.00,LWC V2.10 B1813,2013-02-10 05:06:00,
2013-02-10 00:11:00,14.3,1.1,30.26,WNW,286,5.0,5.0,55,0.00,,,0.00,LWC V2.10 B1813,2013-02-10 05:11:00,
2013-02-10 00:16:00,14.1,0.9,30.26,NW,318,12.0,12.0,55,0.00,,,0.00,LWC V2.10 B1813,2013-02-10 05:16:00,
2013-02-10 00:21:00,14.2,1.0,30.26,NW,313,5.0,5.0,55,0.00,,,0.00,LWC V2.10 B1813,2013-02-10 05:21:00,
2013-02-10 00:26:00,14.1,0.9,30.26,NW,318,3.0,7.0,55,0.00,,,0.00,LWC V2.10 B1813,2013-02-10 05:26:00,
2013-02-10 00:31:00,14.1,0.9,30.26,NNW,334,4.0,8.0,55,0.00,,,0.00,LWC V2.10 B1813,2013-02-10 05:31:00,
2013-02-10 00:36:00,13.9,1.1,30.26,WNW,302,5.0,6.0,56,0.00,,,0.00,LWC V2.10 B1813,2013-02-10 05:36:00,
2013-02-10 00:41:00,13.8,1.0,30.26,WNW,288,0.0,2.0,56,0.00,,,0.00,LWC V2.10 B1813,2013-02-10 05:41:00,
2013-02-10 00:46:00,13.6,0.9,30.26,NW,324,1.0,3.0,56,0.00,,,0.00,LWC V2.10 B1813,2013-02-10 05:46:00,
2013-02-10 00:51:00,13.4,0.7,30.26,North,350,0.0,4.0,56,0.00,,,0.00,LWC V2.10 B1813,2013-02-10 05:51:00,
2013-02-10 00:56:00,13.1,0.8,30.27,NW,314,2.0,3.0,57,0.00,,,0.00,LWC V2.10 B1813,2013-02-10 05:56:00,
2013-02-10 01:01:00,13.0,0.7,30.27,WNW,291,0.0,2.0,57,0.00,,,0.00,LWC V2.10 B1813,2013-02-10 06:01:00,
2013-02-10 01:06:00,12.6,0.7,30.27,NW,313,2.0,2.0,58,0.00,,,0.00,LWC V2.10 B1813,2013-02-10 06:06:00,
2013-02-10 01:11:00,12.6,0.3,30.27,West,279,0.0,4.0,57,0.00,,,0.00,LWC V2.10 B1813,2013-02-10 06:11:00,
2013-02-10 01:16:00,12.6,0.7,30.27,NW,324,3.0,3.0,58,0.00,,,0.00,LWC V2.10 B1813,2013-02-10 06:16:00,
2013-02-10 01:21:00,12.5,0.2,30.27,North,355,2.0,5.0,57,0.00,,,0.00,LWC V2.10 B1813,2013-02-10 06:21:00,
2013-02-10 01:26:00,12.6,0.3,30.28,NW,321,1.0,3.0,57,0.00,,,0.00,LWC V2.10 B1813,2013-02-10 06:26:00,
2013-02-10 01:31:00,12.4,0.5,30.28,North,10,0.0,2.0,58,0.00,,,0.00,LWC V2.10 B1813,2013-02-10 06:31:00,
2013-02-10 01:36:00,12.3,0.4,30.28,WNW,294,2.0,2.0,58,0.00,,,0.00,LWC V2.10 B1813,2013-02-10 06:36:00,
2013-02-10 01:41:00,12.4,0.5,30.28,NNW,338,2.0,8.0,58,0.00,,,0.00,LWC V2.10 B1813,2013-02-10 06:41:00,
2013-02-10 01:46:00,12.5,0.6,30.28,NW,307,0.0,4.0,58,0.00,,,0.00,LWC V2.10 B1813,2013-02-10 06:46:00,
2013-02-10 01:51:00,12.5,0.6,30.29,North,7,3.0,5.0,58,0.00,,,0.00,LWC V2.10 B1813,2013-02-10 06:51:00,
2013-02-10 01:56:00,12.5,0.2,30.29,NW,320,3.0,3.0,57,0.00,,,0.00,LWC V2.10 B1813,2013-02-10 06:56:00,
2013-02-10 02:01:00,12.5,0.2,30.29,NW,324,4.0,4.0,57,0.00,,,0.00,LWC V2.10 B1813,2013-02-10 07:01:00,
2013-02-10 02:06:00,12.4,0.1,30.29,WNW,295,1.0,7.0,57,0.00,,,0.00,LWC V2.10 B1813,2013-02-10 07:06:00,
2013-02-10 02:11:00,12.4,0.1,30.29,NNW,329,0.0,5.0,57,0.00,,,0.00,LWC V2.10 B1813,2013-02-10 07:11:00,
2013-02-10 02:16:00,12.3,0.0,30.30,WNW,289,1.0,2.0,57,0.00,,,0.00,LWC V2.10 B1813,2013-02-10 07:16:00,
2013-02-10 02:21:00,12.1,0.6,30.30,North,0,0.0,2.0,59,0.00,,,0.00,LWC V2.10 B1813,2013-02-10 07:21:00,
2013-02-10 02:26:00,12.0,0.1,30.30,NW,320,2.0,5.0,58,0.00,,,0.00,LWC V2.10 B1813,2013-02-10 07:26:00,
2013-02-10 02:31:00,12.2,0.3,30.30,NW,325,1.0,10.0,58,0.00,,,0.00,LWC V2.10 B1813,2013-02-10 07:31:00,
2013-02-10 02:36:00,12.3,0.4,30.30,NW,324,4.0,6.0,58,0.00,,,0.00,LWC V2.10 B1813,2013-02-10 07:36:00,
2013-02-10 02:41:00,12.1,0.2,30.30,NNW,339,2.0,7.0,58,0.00,,,0.00,LWC V2.10 B1813,2013-02-10 07:41:00,
2013-02-10 02:46:00,11.9,0.0,30.30,NNW,345,0.0,0.0,58,0.00,,,0.00,LWC V2.10 B1813,2013-02-10 07:46:00,
2013-02-10 02:51:00,11.6,0.1,30.30,North,3,1.0,2.0,59,0.00,,,0.00,LWC V2.10 B1813,2013-02-10 07:51:00,
2013-02-10 02:56:00,11.3,-0.2,30.30,NNW,348,0.0,1.0,59,0.00,,,0.00,LWC V2.10 B1813,2013-02-10 07:56:00,
2013-02-10 03:01:00,10.9,-0.2,30.30,WSW,256,0.0,2.0,60,0.00,,,0.00,LWC V2.10 B1813,2013-02-10 08:01:00,
2013-02-10 03:06:00,10.7,-0.1,30.30,NW,308,0.0,1.0,61,0.00,,,0.00,LWC V2.10 B1813,2013-02-10 08:06:00,
2013-02-10 03:11:00,10.4,0.3,30.30,NW,311,0.0,0.0,63,0.00,,,0.00,LWC V2.10 B1813,2013-02-10 08:11:00,
2013-02-10 03:16:00,10.1,-0.3,30.30,North,0,0.0,3.0,62,0.00,,,0.00,LWC V2.10 B1813,2013-02-10 08:16:00,
2013-02-10 03:21:00,10.0,-0.4,30.31,NNW,346,2.0,2.0,62,0.00,,,0.00,LWC V2.10 B1813,2013-02-10 08:21:00,
2013-02-10 03:26:00,10.0,-0.4,30.30,NNE,24,0.0,0.0,62,0.00,,,0.00,LWC V2.10 B1813,2013-02-10 08:26:00,
2013-02-10 03:31:00,9.6,-0.4,30.30,West,259,0.0,1.0,63,0.00,,,0.00,LWC V2.10 B1813,2013-02-10 08:31:00,
2013-02-10 03:36:00,8.8,-0.2,30.31,SW,234,1.0,2.0,66,0.00,,,0.00,LWC V2.10 B1813,2013-02-10 08:36:00,
2013-02-10 03:41:00,8.1,-0.2,30.31,WSW,249,1.0,1.0,68,0.00,,,0.00,LWC V2.10 B1813,2013-02-10 08:41:00,
2013-02-10 03:46:00,7.3,-0.1,30.32,West,280,0.0,0.0,71,0.00,,,0.00,LWC V2.10 B1813,2013-02-10 08:46:00,
2013-02-10 03:51:00,6.9,-0.2,30.32,West,276,2.0,2.0,72,0.00,,,0.00,LWC V2.10 B1813,2013-02-10 08:51:00,
2013-02-10 03:56:00,6.2,-0.6,30.31,WNW,291,1.0,1.0,73,0.00,,,0.00,LWC V2.10 B1813,2013-02-10 08:56:00,
2013-02-10 04:01:00,5.8,-0.7,30.31,WNW,291,1.0,1.0,74,0.00,,,0.00,LWC V2.10 B1813,2013-02-10 09:01:00,
2013-02-10 04:06:00,5.4,-0.8,30.32,WSW,244,0.0,1.0,75,0.00,,,0.00,LWC V2.10 B1813,2013-02-10 09:06:00,
2013-02-10 04:11:00,5.4,-0.8,30.32,WSW,245,0.0,1.0,75,0.00,,,0.00,LWC V2.10 B1813,2013-02-10 09:11:00,
2013-02-10 04:16:00,5.3,-0.9,30.32,West,275,1.0,2.0,75,0.00,,,0.00,LWC V2.10 B1813,2013-02-10 09:16:00,
2013-02-10 04:21:00,5.4,-0.5,30.33,WNW,291,0.0,1.0,76,0.00,,,0.00,LWC V2.10 B1813,2013-02-10 09:21:00,
2013-02-10 04:26:00,5.3,-0.9,30.33,West,270,1.0,1.0,75,0.00,,,0.00,LWC V2.10 B1813,2013-02-10 09:26:00,
2013-02-10 04:31:00,5.0,-1.2,30.33,WNW,289,1.0,1.0,75,0.00,,,0.00,LWC V2.10 B1813,2013-02-10 09:31:00,
2013-02-10 04:36:00,4.7,-1.2,30.34,WNW,301,1.0,1.0,76,0.00,,,0.00,LWC V2.10 B1813,2013-02-10 09:36:00,
2013-02-10 04:41:00,4.3,-1.3,30.34,WNW,289,1.0,2.0,77,0.00,,,0.00,LWC V2.10 B1813,2013-02-10 09:41:00,
2013-02-10 04:46:00,4.0,-1.6,30.35,West,280,1.0,2.0,77,0.00,,,0.00,LWC V2.10 B1813,2013-02-10 09:46:00,
2013-02-10 04:51:00,3.6,-2.0,30.35,WNW,287,1.0,1.0,77,0.00,,,0.00,LWC V2.10 B1813,2013-02-10 09:51:00,
2013-02-10 04:56:00,3.3,-2.0,30.35,WNW,296,1.0,1.0,78,0.00,,,0.00,LWC V2.10 B1813,2013-02-10 09:56:00,
2013-02-10 05:01:00,3.0,-2.0,30.35,WNW,295,1.0,2.0,79,0.00,,,0.00,LWC V2.10 B1813,2013-02-10 10:01:00,
2013-02-10 05:06:00,2.8,-2.2,30.35,WNW,293,0.0,1.0,79,0.00,,,0.00,LWC V2.10 B1813,2013-02-10 10:06:00,
2013-02-10 05:11:00,2.5,-2.5,30.35,WNW,293,1.0,1.0,79,0.00,,,0.00,LWC V2.10 B1813,2013-02-10 10:11:00,
2013-02-10 05:16:00,2.2,-2.5,30.35,WNW,282,1.0,2.0,80,0.00,,,0.00,LWC V2.10 B1813,2013-02-10 10:16:00,
2013-02-10 05:21:00,2.0,-2.5,30.36,West,279,2.0,3.0,81,0.00,,,0.00,LWC V2.10 B1813,2013-02-10 10:21:00,
2013-02-10 05:26:00,1.9,-2.6,30.36,WNW,283,3.0,4.0,81,0.00,,,0.00,LWC V2.10 B1813,2013-02-10 10:26:00,
2013-02-10 05:31:00,1.8,-2.7,30.36,NW,311,3.0,3.0,81,0.00,,,0.00,LWC V2.10 B1813,2013-02-10 10:31:00,
2013-02-10 05:36:00,2.0,-2.2,30.36,WNW,295,1.0,2.0,82,0.00,,,0.00,LWC V2.10 B1813,2013-02-10 10:36:00,
2013-02-10 05:41:00,1.9,-2.6,30.36,NW,307,1.0,2.0,81,0.00,,,0.00,LWC V2.10 B1813,2013-02-10 10:41:00,
2013-02-10 05:46:00,2.0,-2.2,30.36,NW,314,0.0,2.0,82,0.00,,,0.00,LWC V2.10 B1813,2013-02-10 10:46:00,
2013-02-10 05:51:00,1.6,-2.9,30.36,North,350,0.0,0.0,81,0.00,,,0.00,LWC V2.10 B1813,2013-02-10 10:51:00,
2013-02-10 05:56:00,1.0,-3.4,30.37,WNW,290,0.0,0.0,81,0.00,,,0.00,LWC V2.10 B1813,2013-02-10 10:56:00,
2013-02-10 06:01:00,0.9,-3.0,30.37,WSW,251,0.0,1.0,83,0.00,,,0.00,LWC V2.10 B1813,2013-02-10 11:01:00,
2013-02-10 06:06:00,0.9,-3.0,30.37,WNW,284,0.0,1.0,83,0.00,,,0.00,LWC V2.10 B1813,2013-02-10 11:06:00,
2013-02-10 06:11:00,0.8,-3.1,30.37,WNW,287,0.0,1.0,83,0.00,,,0.00,LWC V2.10 B1813,2013-02-10 11:11:00,
2013-02-10 06:16:00,0.6,-3.3,30.37,WNW,283,0.0,1.0,83,0.00,,,0.00,LWC V2.10 B1813,2013-02-10 11:16:00,
2013-02-10 06:21:00,0.7,-3.0,30.37,WNW,286,1.0,1.0,84,0.00,,,0.00,LWC V2.10 B1813,2013-02-10 11:21:00,
2013-02-10 06:26:00,0.6,-3.3,30.38,WNW,295,1.0,1.0,83,0.00,,,0.00,LWC V2.10 B1813,2013-02-10 11:26:00,
2013-02-10 06:31:00,0.4,-3.3,30.38,WNW,290,2.0,2.0,84,0.00,,,0.00,LWC V2.10 B1813,2013-02-10 11:31:00,
2013-02-10 06:36:00,0.2,-3.7,30.39,WNW,297,1.0,2.0,83,0.00,,,0.00,LWC V2.10 B1813,2013-02-10 11:36:00,
2013-02-10 06:41:00,0.0,-3.7,30.39,WNW,302,0.0,1.0,84,0.00,,,0.00,LWC V2.10 B1813,2013-02-10 11:41:00,
2013-02-10 06:46:00,-0.1,-3.8,30.39,WNW,303,0.0,1.0,84,0.00,,,0.00,LWC V2.10 B1813,2013-02-10 11:46:00,
2013-02-10 06:51:00,-0.4,-4.1,30.39,NW,307,1.0,1.0,84,0.00,,,0.00,LWC V2.10 B1813,2013-02-10 11:51:00,
2013-02-10 06:56:00,-0.5,-3.9,30.39,West,279,1.0,2.0,85,0.00,,,0.00,LWC V2.10 B1813,2013-02-10 11:56:00,
2013-02-10 07:01:00,-0.6,-4.0,30.40,WNW,282,0.0,2.0,85,0.00,,,0.00,LWC V2.10 B1813,2013-02-10 12:01:00,
2013-02-10 07:06:00,-0.3,-3.7,30.40,West,277,1.0,2.0,85,0.00,,,0.00,LWC V2.10 B1813,2013-02-10 12:06:00,
2013-02-10 07:11:00,0.1,-3.6,30.40,WNW,296,1.0,1.0,84,0.00,,,0.00,LWC V2.10 B1813,2013-02-10 12:11:00,
2013-02-10 07:16:00,0.3,-3.4,30.41,West,277,0.0,1.0,84,0.00,,,0.00,LWC V2.10 B1813,2013-02-10 12:16:00,
2013-02-10 07:21:00,0.6,-3.1,30.41,West,275,1.0,1.0,84,0.00,,,0.00,LWC V2.10 B1813,2013-02-10 12:21:00,
2013-02-10 07:26:00,1.0,-2.9,30.41,West,278,1.0,1.0,83,0.00,,,0.00,LWC V2.10 B1813,2013-02-10 12:26:00,
2013-02-10 07:31:00,1.3,-2.6,30.42,WNW,301,0.0,1.0,83,0.00,,,0.00,LWC V2.10 B1813,2013-02-10 12:31:00,
2013-02-10 07:36:00,1.9,-2.0,30.42,WNW,301,0.0,0.0,83,0.00,,,0.00,LWC V2.10 B1813,2013-02-10 12:36:00,
2013-02-10 07:41:00,2.4,-2.1,30.42,WNW,301,0.0,0.0,81,0.00,,,0.00,LWC V2.10 B1813,2013-02-10 12:41:00,
2013-02-10 07:46:00,2.8,-1.7,30.42,WNW,301,0.0,0.0,81,0.00,,,0.00,LWC V2.10 B1813,2013-02-10 12:46:00,
2013-02-10 07:51:00,3.2,-1.3,30.42,WNW,301,0.0,0.0,81,0.00,,,0.00,LWC V2.10 B1813,2013-02-10 12:51:00,
2013-02-10 07:56:00,4.4,-0.1,30.43,WNW,301,0.0,0.0,81,0.00,,,0.00,LWC V2.10 B1813,2013-02-10 12:56:00,
2013-02-10 08:01:00,5.6,0.3,30.43,South,170,0.0,0.0,78,0.00,,,0.00,LWC V2.10 B1813,2013-02-10 13:01:00,
2013-02-10 08:06:00,6.9,1.0,30.43,South,170,0.0,1.0,76,0.00,,,0.00,LWC V2.10 B1813,2013-02-10 13:06:00,
2013-02-10 08:11:00,8.5,2.2,30.43,South,170,0.0,0.0,75,0.00,,,0.00,LWC V2.10 B1813,2013-02-10 13:11:00,
2013-02-10 08:16:00,10.4,3.2,30.43,South,170,0.0,0.0,72,0.00,,,0.00,LWC V2.10 B1813,2013-02-10 13:16:00,
2013-02-10 08:21:00,11.5,2.4,30.43,South,170,0.0,0.0,66,0.00,,,0.00,LWC V2.10 B1813,2013-02-10 13:21:00,
2013-02-10 08:26:00,11.7,2.6,30.44,South,170,0.0,0.0,66,0.00,,,0.00,LWC V2.10 B1813,2013-02-10 13:26:00,
2013-02-10 08:31:00,12.6,3.1,30.44,South,170,0.0,0.0,65,0.00,,,0.00,LWC V2.10 B1813,2013-02-10 13:31:00,
2013-02-10 08:36:00,13.6,3.7,30.44,South,170,0.0,0.0,64,0.00,,,0.00,LWC V2.10 B1813,2013-02-10 13:36:00,
2013-02-10 08:41:00,13.7,2.4,30.44,ESE,118,2.0,2.0,60,0.00,,,0.00,LWC V2.10 B1813,2013-02-10 13:41:00,
2013-02-10 08:46:00,12.8,1.9,30.44,SE,145,1.0,1.0,61,0.00,,,0.00,LWC V2.10 B1813,2013-02-10 13:46:00,
2013-02-10 08:51:00,13.2,2.3,30.45,SSE,150,0.0,0.0,61,0.00,,,0.00,LWC V2.10 B1813,2013-02-10 13:51:00,
2013-02-10 08:56:00,13.7,2.4,30.44,ESE,107,1.0,2.0,60,0.00,,,0.00,LWC V2.10 B1813,2013-02-10 13:56:00,
2013-02-10 09:01:00,14.0,2.7,30.45,SSE,147,1.0,1.0,60,0.00,,,0.00,LWC V2.10 B1813,2013-02-10 14:01:00,
2013-02-10 09:06:00,14.7,3.0,30.45,SE,143,0.0,1.0,59,0.00,,,0.00,LWC V2.10 B1813,2013-02-10 14:06:00,
2013-02-10 09:11:00,15.0,2.9,30.45,SE,145,0.0,1.0,58,0.00,,,0.00,LWC V2.10 B1813,2013-02-10 14:11:00,
2013-02-10 09:16:00,15.5,3.0,30.45,SE,126,1.0,2.0,57,0.00,,,0.00,LWC V2.10 B1813,2013-02-10 14:16:00,
2013-02-10 09:21:00,16.0,3.1,30.45,SSE,147,1.0,2.0,56,0.00,,,0.00,LWC V2.10 B1813,2013-02-10 14:21:00,
2013-02-10 09:26:00,16.6,2.9,30.45,SE,134,2.0,3.0,54,0.00,,,0.00,LWC V2.10 B1813,2013-02-10 14:26:00,
2013-02-10 09:31:00,17.0,3.7,30.45,ESE,102,0.0,2.0,55,0.00,,,0.00,LWC V2.10 B1813,2013-02-10 14:31:00,
2013-02-10 09:36:00,17.5,3.3,30.45,SE,136,1.0,3.0,53,0.00,,,0.00,LWC V2.10 B1813,2013-02-10 14:36:00,
2013-02-10 09:41:00,18.0,3.4,30.45,SSE,155,1.0,2.0,52,0.00,,,0.00,LWC V2.10 B1813,2013-02-10 14:41:00,
2013-02-10 09:46:00,18.5,3.4,30.45,ESE,109,0.0,2.0,51,0.00,,,0.00,LWC V2.10 B1813,2013-02-10 14:46:00,
2013-02-10 09:51:00,19.0,3.5,30.45,SE,131,1.0,2.0,50,0.00,,,0.00,LWC V2.10 B1813,2013-02-10 14:51:00,
2013-02-10 09:56:00,19.5,3.0,30.45,SE,125,2.0,4.0,48,0.00,,,0.00,LWC V2.10 B1813,2013-02-10 14:56:00,
2013-02-10 10:01:00,20.0,4.4,30.45,ESE,122,0.0,2.0,50,0.00,,,0.00,LWC V2.10 B1813,2013-02-10 15:01:00,
2013-02-10 10:06:00,20.9,5.2,30.45,NE,36,1.0,1.0,50,0.00,,,0.00,LWC V2.10 B1813,2013-02-10 15:06:00,
2013-02-10 10:11:00,21.7,4.6,30.45,NE,55,2.0,3.0,47,0.00,,,0.00,LWC V2.10 B1813,2013-02-10 15:11:00,
2013-02-10 10:21:00,22.4,3.8,30.45,North,6,1.0,2.0,44,0.00,,,0.00,LWC V2.10 B1813,2013-02-10 15:21:00,
2013-02-10 10:26:00,22.8,5.2,30.45,SSE,162,1.0,1.0,46,0.00,,,0.00,LWC V2.10 B1813,2013-02-10 15:26:00,
2013-02-10 10:31:00,23.3,4.2,30.45,NE,46,2.0,3.0,43,0.00,,,0.00,LWC V2.10 B1813,2013-02-10 15:31:00,
2013-02-10 10:36:00,23.5,2.2,30.45,WNW,297,2.0,7.0,39,0.00,,,0.00,LWC V2.10 B1813,2013-02-10 15:36:00,
2013-02-10 10:41:00,23.7,2.4,30.45,NNW,346,2.0,6.0,39,0.00,,,0.00,LWC V2.10 B1813,2013-02-10 15:41:00,
2013-02-10 10:46:00,23.8,2.5,30.45,NE,53,4.0,6.0,39,0.00,,,0.00,LWC V2.10 B1813,2013-02-10 15:46:00,
2013-02-10 10:51:00,24.2,2.9,30.45,North,350,5.0,7.0,39,0.00,,,0.00,LWC V2.10 B1813,2013-02-10 15:51:00,
2013-02-10 10:56:00,24.4,3.0,30.45,NW,322,4.0,6.0,39,0.00,,,0.00,LWC V2.10 B1813,2013-02-10 15:56:00,
2013-02-10 11:01:00,24.6,2.1,30.45,NE,41,3.0,5.0,37,0.00,,,0.00,LWC V2.10 B1813,2013-02-10 16:01:00,
2013-02-10 11:06:00,25.1,2.5,30.45,NNW,327,3.0,4.0,37,0.00,,,0.00,LWC V2.10 B1813,2013-02-10 16:06:00,
2013-02-10 11:11:00,25.5,4.0,30.45,ESE,114,0.0,2.0,39,0.00,,,0.00,LWC V2.10 B1813,2013-02-10 16:11:00,
2013-02-10 11:16:00,26.1,4.6,30.44,ENE,69,2.0,6.0,39,0.00,,,0.00,LWC V2.10 B1813,2013-02-10 16:16:00,
2013-02-10 11:26:00,26.4,4.8,30.44,East,85,1.0,2.0,39,0.00,,,0.00,LWC V2.10 B1813,2013-02-10 16:26:00,
2013-02-10 11:31:00,26.9,4.1,30.44,ESE,108,2.0,4.0,37,0.00,,,0.00,LWC V2.10 B1813,2013-02-10 16:31:00,
2013-02-10 11:36:00,27.4,5.2,30.44,NE,38,1.0,4.0,38,0.00,,,0.00,LWC V2.10 B1813,2013-02-10 16:36:00,
2013-02-10 11:41:00,28.1,4.6,30.43,ENE,62,0.0,2.0,36,0.00,,,0.00,LWC V2.10 B1813,2013-02-10 16:41:00,
2013-02-10 11:46:00,28.5,4.4,30.43,ENE,61,3.0,4.0,35,0.00,,,0.00,LWC V2.10 B1813,2013-02-10 16:46:00,
2013-02-10 11:51:00,28.6,4.5,30.43,ESE,123,3.0,4.0,35,0.00,,,0.00,LWC V2.10 B1813,2013-02-10 16:51:00,
2013-02-10 11:56:00,28.5,4.4,30.42,SE,130,3.0,4.0,35,0.00,,,0.00,LWC V2.10 B1813,2013-02-10 16:56:00,
2013-02-10 12:01:00,28.7,3.9,30.42,SE,134,2.0,4.0,34,0.00,,,0.00,LWC V2.10 B1813,2013-02-10 17:01:00,
2013-02-10 12:06:00,29.1,3.0,30.41,ENE,73,2.0,4.0,32,0.00,,,0.00,LWC V2.10 B1813,2013-02-10 17:06:00,
2013-02-10 12:11:00,29.3,3.1,30.41,East,89,2.0,3.0,32,0.00,,,0.00,LWC V2.10 B1813,2013-02-10 17:11:00,
2013-02-10 12:16:00,29.5,2.6,30.41,ENE,60,2.0,2.0,31,0.00,,,0.00,LWC V2.10 B1813,2013-02-10 17:16:00,
2013-02-10 12:21:00,29.7,3.5,30.40,WSW,251,0.0,1.0,32,0.00,,,0.00,LWC V2.10 B1813,2013-02-10 17:21:00,
2013-02-10 12:26:00,30.2,4.6,30.40,West,279,1.0,2.0,33,0.00,,,0.00,LWC V2.10 B1813,2013-02-10 17:26:00,
2013-02-10 12:31:00,30.4,3.4,30.40,SSE,157,0.0,4.0,31,0.00,,,0.00,LWC V2.10 B1813,2013-02-10 17:31:00,
2013-02-10 12:36:00,30.8,2.3,30.40,ENE,65,2.0,3.0,29,0.00,,,0.00,LWC V2.10 B1813,2013-02-10 17:36:00,
2013-02-10 12:41:00,31.0,2.5,30.39,North,1,2.0,4.0,29,0.00,,,0.00,LWC V2.10 B1813,2013-02-10 17:41:00,
2013-02-10 12:46:00,31.0,1.8,30.39,NNE,32,3.0,3.0,28,0.00,,,0.00,LWC V2.10 B1813,2013-02-10 17:46:00,
2013-02-10 12:51:00,31.2,1.9,30.38,ENE,62,3.0,3.0,28,0.00,,,0.00,LWC V2.10 B1813,2013-02-10 17:51:00,
2013-02-10 12:56:00,31.4,2.9,30.38,NNW,346,0.0,2.0,29,0.00,,,0.00,LWC V2.10 B1813,2013-02-10 17:56:00,
2013-02-10 13:01:00,31.5,2.2,30.38,NNW,339,1.0,3.0,28,0.00,,,0.00,LWC V2.10 B1813,2013-02-10 18:01:00,
2013-02-10 13:06:00,32.1,4.2,30.38,ENE,73,1.0,5.0,30,0.00,,,0.00,LWC V2.10 B1813,2013-02-10 18:06:00,
2013-02-10 13:11:00,32.2,3.6,30.37,NE,40,5.0,5.0,29,0.00,,,0.00,LWC V2.10 B1813,2013-02-10 18:11:00,
2013-02-10 13:16:00,32.4,3.0,30.37,ENE,78,1.0,3.0,28,0.00,,,0.00,LWC V2.10 B1813,2013-02-10 18:16:00,
2013-02-10 13:21:00,32.7,3.2,30.37,North,350,3.0,3.0,28,0.00,,,0.00,LWC V2.10 B1813,2013-02-10 18:21:00,
2013-02-10 13:26:00,32.5,0.6,30.37,ENE,67,2.0,6.0,25,0.00,,,0.01,LWC V2.10 B1813,2013-02-10 18:26:00,
2013-02-10 13:31:00,32.5,0.6,30.36,ESE,106,1.0,7.0,25,0.00,,,0.01,LWC V2.10 B1813,2013-02-10 18:31:00,
2013-02-10 13:36:00,32.6,1.6,30.36,WNW,290,1.0,7.0,26,0.00,,,0.01,LWC V2.10 B1813,2013-02-10 18:36:00,
2013-02-10 13:41:00,32.8,2.5,30.36,WNW,286,0.0,1.0,27,0.00,,,0.01,LWC V2.10 B1813,2013-02-10 18:41:00,
2013-02-10 13:46:00,-999.0,-99.9,-100.00,North,-999,-999.0,7.0,-999,-99.99,,,0.01,LWC V2.10 B1813,2013-02-10 18:46:00,
2013-02-10 13:51:00,33.4,2.2,30.36,WNW,284,0.0,4.0,26,0.00,,,0.01,LWC V2.10 B1813,2013-02-10 18:51:00,
2013-02-10 13:56:00,33.6,2.4,30.35,North,355,5.0,5.0,26,0.00,,,0.01,LWC V2.10 B1813,2013-02-10 18:56:00,
2013-02-10 14:01:00,33.6,1.6,30.35,East,89,3.0,3.0,25,0.00,,,0.01,LWC V2.10 B1813,2013-02-10 19:01:00,
2013-02-10 14:06:00,33.9,0.1,30.35,ENE,61,4.0,5.0,23,0.00,,,0.01,LWC V2.10 B1813,2013-02-10 19:06:00,
2013-02-10 14:11:00,33.8,0.0,30.35,ENE,72,1.0,3.0,23,0.00,,,0.01,LWC V2.10 B1813,2013-02-10 19:11:00,
2013-02-10 14:16:00,33.9,1.0,30.35,North,7,2.0,3.0,24,0.00,,,0.01,LWC V2.10 B1813,2013-02-10 19:16:00,
2013-02-10 14:21:00,33.9,0.1,30.35,ESE,118,0.0,5.0,23,0.00,,,0.01,LWC V2.10 B1813,2013-02-10 19:21:00,
2013-02-10 14:26:00,34.3,3.0,30.35,North,352,1.0,1.0,26,0.00,,,0.01,LWC V2.10 B1813,2013-02-10 19:26:00,
2013-02-10 14:31:00,34.5,0.6,30.35,ENE,73,4.0,5.0,23,0.00,,,0.01,LWC V2.10 B1813,2013-02-10 19:31:00,
2013-02-10 14:36:00,34.6,3.3,30.34,NNE,14,1.0,1.0,26,0.00,,,0.01,LWC V2.10 B1813,2013-02-10 19:36:00,
2013-02-10 14:41:00,34.7,1.6,30.34,WNW,297,1.0,4.0,24,0.00,,,0.01,LWC V2.10 B1813,2013-02-10 19:41:00,
2013-02-10 14:46:00,34.9,1.8,30.34,SSW,199,0.0,2.0,24,0.00,,,0.02,LWC V2.10 B1813,2013-02-10 19:46:00,
2013-02-10 14:51:00,35.4,4.8,30.34,WSW,241,2.0,2.0,27,0.00,,,0.02,LWC V2.10 B1813,2013-02-10 19:51:00,
2013-02-10 14:56:00,35.3,0.3,30.35,WNW,291,0.0,0.0,22,0.00,,,0.02,LWC V2.10 B1813,2013-02-10 19:56:00,
2013-02-10 15:01:00,35.8,1.7,30.35,WNW,291,0.0,1.0,23,0.00,,,0.02,LWC V2.10 B1813,2013-02-10 20:01:00,
2013-02-10 15:06:00,36.3,3.9,30.35,WNW,289,0.0,2.0,25,0.00,,,0.02,LWC V2.10 B1813,2013-02-10 20:06:00,
2013-02-10 15:11:00,36.3,3.9,30.35,North,9,3.0,3.0,25,0.00,,,0.02,LWC V2.10 B1813,2013-02-10 20:11:00,
2013-02-10 15:16:00,35.9,3.5,30.35,WNW,296,1.0,3.0,25,0.00,,,0.02,LWC V2.10 B1813,2013-02-10 20:16:00,
2013-02-10 15:21:00,35.3,0.3,30.35,WNW,298,3.0,4.0,22,0.00,,,0.02,LWC V2.10 B1813,2013-02-10 20:21:00,
2013-02-10 15:26:00,35.1,2.0,30.35,NNW,334,2.0,3.0,24,0.00,,,0.02,LWC V2.10 B1813,2013-02-10 20:26:00,
2013-02-10 15:31:00,34.7,3.4,30.35,NNE,21,1.0,3.0,26,0.00,,,0.02,LWC V2.10 B1813,2013-02-10 20:31:00,
2013-02-10 15:36:00,33.9,3.5,30.35,WNW,282,1.0,3.0,27,0.00,,,0.02,LWC V2.10 B1813,2013-02-10 20:36:00,
2013-02-10 15:41:00,33.3,2.2,30.36,NW,315,0.0,4.0,26,0.00,,,0.02,LWC V2.10 B1813,2013-02-10 20:41:00,
2013-02-10 15:46:00,33.3,3.8,30.36,WNW,290,1.0,1.0,28,0.00,,,0.02,LWC V2.10 B1813,2013-02-10 20:46:00,
2013-02-10 15:51:00,33.3,2.2,30.34,WNW,291,0.0,1.0,26,0.00,,,0.02,LWC V2.10 B1813,2013-02-10 20:51:00,
2013-02-10 15:56:00,33.1,2.0,30.34,West,272,0.0,1.0,26,0.00,,,0.02,LWC V2.10 B1813,2013-02-10 20:56:00,
2013-02-10 16:01:00,32.8,3.3,30.34,West,272,0.0,0.0,28,0.00,,,0.02,LWC V2.10 B1813,2013-02-10 21:01:00,
2013-02-10 16:06:00,32.6,9.2,30.34,West,272,0.0,1.0,37,0.00,,,0.02,LWC V2.10 B1813,2013-02-10 21:06:00,
2013-02-10 16:11:00,32.1,6.3,30.34,West,272,0.0,1.0,33,0.00,,,0.02,LWC V2.10 B1813,2013-02-10 21:11:00,
2013-02-10 16:16:00,31.8,6.0,30.34,West,259,1.0,1.0,33,0.00,,,0.02,LWC V2.10 B1813,2013-02-10 21:16:00,
2013-02-10 16:21:00,31.6,4.5,30.34,WSW,258,1.0,1.0,31,0.00,,,0.02,LWC V2.10 B1813,2013-02-10 21:21:00,
2013-02-10 16:26:00,31.4,4.3,30.34,WSW,258,0.0,1.0,31,0.00,,,0.02,LWC V2.10 B1813,2013-02-10 21:26:00,
2013-02-10 16:31:00,31.1,6.7,30.34,WSW,258,0.0,0.0,35,0.00,,,0.02,LWC V2.10 B1813,2013-02-10 21:31:00,
2013-02-10 16:36:00,30.4,6.7,30.34,West,259,0.0,0.0,36,0.00,,,0.02,LWC V2.10 B1813,2013-02-10 21:36:00,
2013-02-10 16:41:00,29.7,7.2,30.33,West,259,0.0,0.0,38,0.00,,,0.02,LWC V2.10 B1813,2013-02-10 21:41:00,
2013-02-10 16:46:00,29.0,8.8,30.34,West,263,1.0,1.0,42,0.00,,,0.02,LWC V2.10 B1813,2013-02-10 21:46:00,
2013-02-10 16:51:00,28.1,11.4,30.34,WNW,286,1.0,2.0,49,0.00,,,0.02,LWC V2.10 B1813,2013-02-10 21:51:00,
2013-02-10 16:56:00,27.6,11.9,30.34,WNW,283,1.0,2.0,51,0.00,,,0.02,LWC V2.10 B1813,2013-02-10 21:56:00,
2013-02-10 17:01:00,27.2,11.5,30.34,WNW,283,1.0,2.0,51,0.00,,,0.02,LWC V2.10 B1813,2013-02-10 22:01:00,
2013-02-10 17:06:00,27.0,11.3,30.34,WNW,284,1.0,2.0,51,0.00,,,0.02,LWC V2.10 B1813,2013-02-10 22:06:00,
2013-02-10 17:11:00,26.6,12.6,30.34,WNW,293,2.0,2.0,55,0.00,,,0.02,LWC V2.10 B1813,2013-02-10 22:11:00,
2013-02-10 17:16:00,26.1,12.6,30.34,WNW,286,1.0,2.0,56,0.00,,,0.02,LWC V2.10 B1813,2013-02-10 22:16:00,
2013-02-10 17:21:00,25.7,13.0,30.34,WNW,286,1.0,1.0,58,0.00,,,0.02,LWC V2.10 B1813,2013-02-10 22:21:00,
2013-02-10 17:26:00,25.3,13.8,30.34,WNW,294,2.0,2.0,61,0.00,,,0.02,LWC V2.10 B1813,2013-02-10 22:26:00,
2013-02-10 17:31:00,25.0,13.1,30.34,WNW,286,1.0,2.0,60,0.00,,,0.02,LWC V2.10 B1813,2013-02-10 22:31:00,
2013-02-10 17:36:00,24.8,12.9,30.34,WNW,296,1.0,2.0,60,0.00,,,0.02,LWC V2.10 B1813,2013-02-10 22:36:00,
2013-02-10 17:41:00,24.6,13.8,30.34,WNW,296,0.0,1.0,63,0.00,,,0.02,LWC V2.10 B1813,2013-02-10 22:41:00,
2013-02-10 17:46:00,24.3,14.3,30.34,WNW,295,0.0,0.0,65,0.00,,,0.02,LWC V2.10 B1813,2013-02-10 22:46:00,
2013-02-10 17:51:00,24.0,14.3,30.33,WNW,296,0.0,0.0,66,0.00,,,0.02,LWC V2.10 B1813,2013-02-10 22:51:00,
2013-02-10 17:56:00,23.5,14.5,30.33,WNW,296,0.0,0.0,68,0.00,,,0.02,LWC V2.10 B1813,2013-02-10 22:56:00,
2013-02-10 18:01:00,23.2,13.2,30.34,WNW,296,0.0,0.0,65,0.00,,,0.02,LWC V2.10 B1813,2013-02-10 23:01:00,
2013-02-10 18:06:00,22.9,12.9,30.34,WNW,294,0.0,0.0,65,0.00,,,0.02,LWC V2.10 B1813,2013-02-10 23:06:00,
2013-02-10 18:11:00,22.7,13.4,30.34,WNW,295,0.0,1.0,67,0.00,,,0.02,LWC V2.10 B1813,2013-02-10 23:11:00,
2013-02-10 18:16:00,22.3,13.7,30.34,WNW,294,1.0,1.0,69,0.00,,,0.02,LWC V2.10 B1813,2013-02-10 23:16:00,
2013-02-10 18:21:00,22.0,14.1,30.35,WNW,295,0.0,1.0,71,0.00,,,0.02,LWC V2.10 B1813,2013-02-10 23:21:00,
2013-02-10 18:26:00,21.7,13.8,30.35,West,281,1.0,1.0,71,0.00,,,0.02,LWC V2.10 B1813,2013-02-10 23:26:00,
2013-02-10 18:31:00,21.5,13.6,30.36,WNW,282,1.0,1.0,71,0.00,,,0.02,LWC V2.10 B1813,2013-02-10 23:31:00,
2013-02-10 18:36:00,21.5,14.8,30.36,West,281,1.0,1.0,75,0.00,,,0.02,LWC V2.10 B1813,2013-02-10 23:36:00,
2013-02-10 18:41:00,21.3,14.6,30.36,West,281,0.0,1.0,75,0.00,,,0.02,LWC V2.10 B1813,2013-02-10 23:41:00,
2013-02-10 18:46:00,21.1,14.7,30.36,WNW,282,0.0,0.0,76,0.00,,,0.02,LWC V2.10 B1813,2013-02-10 23:46:00,
2013-02-10 18:51:00,20.7,14.4,30.36,West,281,0.0,0.0,76,0.00,,,0.02,LWC V2.10 B1813,2013-02-10 23:51:00,
2013-02-10 18:56:00,20.3,13.7,30.36,West,281,0.0,1.0,75,0.00,,,0.02,LWC V2.10 B1813,2013-02-10 23:56:00,
2013-02-10 19:01:00,19.9,13.3,30.36,West,281,0.0,0.0,75,0.00,,,0.02,LWC V2.10 B1813,2013-02-11 00:01:00,
2013-02-10 19:06:00,19.6,13.6,30.36,WNW,286,1.0,1.0,77,0.00,,,0.02,LWC V2.10 B1813,2013-02-11 00:06:00,
2013-02-10 19:11:00,19.2,13.2,30.35,WNW,289,1.0,1.0,77,0.00,,,0.02,LWC V2.10 B1813,2013-02-11 00:11:00,
2013-02-10 19:16:00,19.1,13.1,30.35,WNW,282,2.0,2.0,77,0.00,,,0.02,LWC V2.10 B1813,2013-02-11 00:16:00,
2013-02-10 19:21:00,19.0,13.3,30.35,WNW,289,1.0,1.0,78,0.00,,,0.02,LWC V2.10 B1813,2013-02-11 00:21:00,
2013-02-10 19:26:00,18.8,13.1,30.35,WNW,286,1.0,1.0,78,0.00,,,0.02,LWC V2.10 B1813,2013-02-11 00:26:00,
2013-02-10 19:31:00,18.5,12.8,30.35,WNW,286,0.0,0.0,78,0.00,,,0.02,LWC V2.10 B1813,2013-02-11 00:31:00,
2013-02-10 19:36:00,18.3,12.9,30.35,WNW,287,0.0,0.0,79,0.00,,,0.02,LWC V2.10 B1813,2013-02-11 00:36:00,
2013-02-10 19:41:00,17.9,12.5,30.35,WNW,286,0.0,0.0,79,0.00,,,0.02,LWC V2.10 B1813,2013-02-11 00:41:00,
2013-02-10 19:46:00,17.6,12.5,30.35,WNW,286,0.0,0.0,80,0.00,,,0.02,LWC V2.10 B1813,2013-02-11 00:46:00,
2013-02-10 19:51:00,17.4,12.3,30.35,WNW,287,0.0,0.0,80,0.00,,,0.02,LWC V2.10 B1813,2013-02-11 00:51:00,
2013-02-10 19:56:00,17.1,12.0,30.35,WNW,286,0.0,0.0,80,0.00,,,0.02,LWC V2.10 B1813,2013-02-11 00:56:00,
2013-02-10 20:01:00,16.9,11.8,30.35,WNW,289,0.0,0.0,80,0.00,,,0.02,LWC V2.10 B1813,2013-02-11 01:01:00,
2013-02-10 20:06:00,16.7,11.9,30.34,WNW,289,0.0,0.0,81,0.00,,,0.02,LWC V2.10 B1813,2013-02-11 01:06:00,
2013-02-10 20:11:00,16.5,11.7,30.34,WNW,289,0.0,0.0,81,0.00,,,0.02,LWC V2.10 B1813,2013-02-11 01:11:00,
2013-02-10 20:16:00,16.2,11.7,30.34,WNW,289,0.0,0.0,82,0.00,,,0.02,LWC V2.10 B1813,2013-02-11 01:16:00,
2013-02-10 20:21:00,16.1,11.3,30.35,West,279,0.0,0.0,81,0.00,,,0.02,LWC V2.10 B1813,2013-02-11 01:21:00,
2013-02-10 20:26:00,16.1,11.3,30.35,West,277,1.0,2.0,81,0.00,,,0.02,LWC V2.10 B1813,2013-02-11 01:26:00,
2013-02-10 20:31:00,15.8,10.7,30.35,West,279,1.0,1.0,80,0.00,,,0.02,LWC V2.10 B1813,2013-02-11 01:31:00,
2013-02-10 20:36:00,15.6,10.8,30.36,WNW,283,1.0,2.0,81,0.00,,,0.02,LWC V2.10 B1813,2013-02-11 01:36:00,
2013-02-10 20:41:00,15.4,10.6,30.35,WNW,283,0.0,1.0,81,0.00,,,0.02,LWC V2.10 B1813,2013-02-11 01:41:00,
2013-02-10 20:46:00,14.9,10.4,30.36,WNW,282,0.0,0.0,82,0.00,,,0.02,LWC V2.10 B1813,2013-02-11 01:46:00,
2013-02-10 20:51:00,14.5,10.3,30.35,WNW,282,0.0,0.0,83,0.00,,,0.02,LWC V2.10 B1813,2013-02-11 01:51:00,
2013-02-10 20:56:00,14.4,10.5,30.35,WSW,255,1.0,2.0,84,0.00,,,0.02,LWC V2.10 B1813,2013-02-11 01:56:00,
2013-02-10 21:01:00,14.4,10.2,30.35,WSW,256,0.0,0.0,83,0.00,,,0.02,LWC V2.10 B1813,2013-02-11 02:01:00,
2013-02-10 21:06:00,14.2,9.7,30.35,WSW,256,0.0,0.0,82,0.00,,,0.02,LWC V2.10 B1813,2013-02-11 02:06:00,
2013-02-10 21:11:00,14.0,9.8,30.35,West,273,1.0,1.0,83,0.00,,,0.02,LWC V2.10 B1813,2013-02-11 02:11:00,
2013-02-10 21:16:00,13.7,9.5,30.35,West,275,1.0,1.0,83,0.00,,,0.02,LWC V2.10 B1813,2013-02-11 02:16:00,
2013-02-10 21:21:00,13.6,9.4,30.35,West,275,1.0,1.0,83,0.00,,,0.02,LWC V2.10 B1813,2013-02-11 02:21:00,
2013-02-10 21:26:00,13.4,9.5,30.34,West,275,0.0,1.0,84,0.00,,,0.02,LWC V2.10 B1813,2013-02-11 02:26:00,
2013-02-10 21:31:00,13.2,9.3,30.34,West,275,0.0,1.0,84,0.00,,,0.02,LWC V2.10 B1813,2013-02-11 02:31:00,
2013-02-10 21:36:00,13.0,9.1,30.35,West,275,0.0,0.0,84,0.00,,,0.02,LWC V2.10 B1813,2013-02-11 02:36:00,
2013-02-10 21:41:00,12.6,8.7,30.35,West,275,0.0,1.0,84,0.00,,,0.02,LWC V2.10 B1813,2013-02-11 02:41:00,
2013-02-10 21:46:00,12.4,8.8,30.35,West,275,0.0,0.0,85,0.00,,,0.02,LWC V2.10 B1813,2013-02-11 02:46:00,
2013-02-10 21:51:00,12.3,8.7,30.35,West,275,0.0,0.0,85,0.00,,,0.02,LWC V2.10 B1813,2013-02-11 02:51:00,
2013-02-10 21:56:00,12.1,8.7,30.34,West,275,0.0,1.0,86,0.00,,,0.02,LWC V2.10 B1813,2013-02-11 02:56:00,
2013-02-10 22:01:00,12.0,8.6,30.34,West,275,0.0,0.0,86,0.00,,,0.02,LWC V2.10 B1813,2013-02-11 03:01:00,
2013-02-10 22:06:00,11.8,8.2,30.35,West,275,0.0,0.0,85,0.00,,,0.02,LWC V2.10 B1813,2013-02-11 03:06:00,
2013-02-10 22:11:00,11.3,7.7,30.35,West,275,0.0,0.0,85,0.00,,,0.02,LWC V2.10 B1813,2013-02-11 03:11:00,
2013-02-10 22:16:00,11.2,8.1,30.34,West,275,0.0,1.0,87,0.00,,,0.02,LWC V2.10 B1813,2013-02-11 03:16:00,
2013-02-10 22:21:00,11.2,7.8,30.34,West,275,0.0,1.0,86,0.00,,,0.02,LWC V2.10 B1813,2013-02-11 03:21:00,
2013-02-10 22:26:00,11.0,7.7,30.34,West,275,1.0,1.0,86,0.00,,,0.02,LWC V2.10 B1813,2013-02-11 03:26:00,
2013-02-10 22:31:00,11.0,7.7,30.34,West,275,0.0,0.0,86,0.00,,,0.02,LWC V2.10 B1813,2013-02-11 03:31:00,
2013-02-10 22:36:00,10.9,7.6,30.34,West,275,0.0,0.0,86,0.00,,,0.02,LWC V2.10 B1813,2013-02-11 03:36:00,
2013-02-10 22:41:00,10.7,7.4,30.34,West,275,0.0,0.0,86,0.00,,,0.02,LWC V2.10 B1813,2013-02-11 03:41:00,
2013-02-10 22:46:00,10.6,7.3,30.34,West,275,0.0,0.0,86,0.00,,,0.02,LWC V2.10 B1813,2013-02-11 03:46:00,
2013-02-10 22:51:00,10.4,7.1,30.34,West,275,0.0,0.0,86,0.00,,,0.02,LWC V2.10 B1813,2013-02-11 03:51:00,
2013-02-10 22:56:00,10.1,7.0,30.34,West,275,0.0,0.0,87,0.00,,,0.02,LWC V2.10 B1813,2013-02-11 03:56:00,
2013-02-10 23:01:00,9.8,6.7,30.34,West,275,0.0,0.0,87,0.00,,,0.02,LWC V2.10 B1813,2013-02-11 04:01:00,
2013-02-10 23:06:00,9.7,6.9,30.34,West,275,0.0,1.0,88,0.00,,,0.02,LWC V2.10 B1813,2013-02-11 04:06:00,
2013-02-10 23:11:00,9.7,6.9,30.34,West,275,0.0,0.0,88,0.00,,,0.02,LWC V2.10 B1813,2013-02-11 04:11:00,
2013-02-10 23:16:00,9.8,6.7,30.33,West,275,1.0,1.0,87,0.00,,,0.02,LWC V2.10 B1813,2013-02-11 04:16:00,
2013-02-10 23:21:00,9.9,6.8,30.34,West,275,0.0,0.0,87,0.00,,,0.02,LWC V2.10 B1813,2013-02-11 04:21:00,
2013-02-10 23:26:00,9.8,6.7,30.33,West,275,0.0,0.0,87,0.00,,,0.02,LWC V2.10 B1813,2013-02-11 04:26:00,
2013-02-10 23:31:00,9.7,6.6,30.33,West,275,0.0,0.0,87,0.00,,,0.02,LWC V2.10 B1813,2013-02-11 04:31:00,
2013-02-10 23:36:00,9.7,6.9,30.33,West,275,0.0,0.0,88,0.00,,,0.02,LWC V2.10 B1813,2013-02-11 04:36:00,
2013-02-10 23:41:00,10.0,7.2,30.33,West,275,0.0,0.0,88,0.00,,,0.02,LWC V2.10 B1813,2013-02-11 04:41:00,
2013-02-10 23:46:00,10.1,7.3,30.33,West,275,0.0,0.0,88,0.00,,,0.02,LWC V2.10 B1813,2013-02-11 04:46:00,
2013-02-10 23:51:00,10.3,7.5,30.33,West,275,0.0,0.0,88,0.00,,,0.02,LWC V2.10 B1813,2013-02-11 04:51:00,
2013-02-10 23:56:00,10.4,7.3,30.33,West,275,0.0,0.0,87,0.00,,,0.02,LWC V2.10 B1813,2013-02-11 04:56:00,